K42C Weather Reports


Display with metric or nautical units.
time (UTC)temp
F
wind
direction
speed
MPH
gust
MPH
rain 1hr
in
rain 24hr
in
rain mn
in
humidity
%
barometer
mb
20260504150740 66 226 8.0 8.0 0.00 0.00 0.00 51 963.3
20260504140751 60 210 5.0 5.0 0.00 0.00 0.00 70 964.4
20260504140110 59 179 4.0 3.0 0.00 0.00 0.00 72 964.4
20260504130759 55 179 6.0 7.0 0.00 0.00 0.00 82 965.2
20260504081522 47 184 0.0 0.0 0.00 0.00 0.00 98 966.7
20260504080845 47 184 0.0 0.0 0.00 0.00 0.00 97 966.7
20260504080204 47 184 0.0 0.0 0.00 0.00 0.00 97 966.8
20260504070214 49 134 0.0 0.0 0.00 0.00 0.00 94 967.0
20260504060221 50 179 6.0 6.0 0.00 0.00 0.00 91 967.4
20260504050231 52 188 7.0 3.0 0.00 0.00 0.00 87 967.9
20260504045551 52 184 4.0 3.0 0.00 0.00 0.00 87 967.9
20260504044913 52 203 2.0 5.0 0.00 0.00 0.00 86 968.0
20260504044232 52 165 6.0 8.0 0.00 0.00 0.00 86 967.9
20260504043555 52 197 5.0 7.0 0.00 0.00 0.00 86 968.0
20260504042914 52 225 6.0 8.0 0.00 0.00 0.00 86 968.0
20260504042237 52 169 5.0 9.0 0.00 0.00 0.00 86 967.9
20260504041556 52 190 4.0 7.0 0.00 0.00 0.00 85 968.0
20260504040919 52 176 6.0 7.0 0.00 0.00 0.00 85 968.1
20260504040238 52 160 6.0 8.0 0.00 0.00 0.00 84 968.1
20260504035601 52 222 7.0 8.0 0.00 0.00 0.00 84 968.3
20260504034920 52 176 5.0 6.0 0.00 0.00 0.00 83 968.2
20260504034243 52 194 6.0 4.0 0.00 0.00 0.00 83 968.3
20260504033602 52 177 5.0 6.0 0.00 0.00 0.00 82 968.3
20260504032924 52 217 6.0 5.0 0.00 0.00 0.00 82 968.4
20260504032244 52 226 3.0 7.0 0.00 0.00 0.00 81 968.4
20260504031606 53 190 7.0 7.0 0.00 0.00 0.00 80 968.5
20260504030925 53 184 1.0 0.0 0.00 0.00 0.00 80 968.6
20260504030248 53 155 6.0 3.0 0.00 0.00 0.00 79 968.6
20260504025607 53 191 4.0 6.0 0.00 0.00 0.00 79 968.6
20260504024930 53 111 6.0 2.0 0.00 0.00 0.00 78 968.6
20260504024249 53 210 5.0 5.0 0.00 0.00 0.00 77 968.6
20260504023612 53 190 6.0 7.0 0.00 0.00 0.00 77 968.6
20260504022931 53 181 7.0 8.0 0.00 0.00 0.00 77 968.8
20260504022253 53 187 6.0 3.0 0.00 0.00 0.00 77 968.7
20260504021613 53 183 6.0 7.0 0.00 0.00 0.00 76 968.8
20260504020935 53 191 8.0 4.0 0.00 0.00 0.00 76 968.8
20260504020254 53 172 7.0 8.0 0.00 0.00 0.00 76 968.7
20260504015617 53 200 5.0 4.0 0.00 0.00 0.00 75 968.8
20260504014936 53 120 7.0 5.0 0.00 0.00 0.00 75 968.7
20260504014259 54 167 2.0 4.0 0.00 0.00 0.00 75 968.8
20260504013618 54 194 5.0 7.0 0.00 0.00 0.00 74 968.8
20260504012941 54 222 5.0 0.0 0.00 0.00 0.00 74 968.8
20260504012300 54 169 3.0 6.0 0.00 0.00 0.00 73 968.8
20260504011623 54 203 4.0 6.0 0.00 0.00 0.00 72 968.7
20260504010942 55 152 3.0 5.0 0.00 0.00 0.00 72 968.6
20260504010304 55 208 6.0 3.0 0.00 0.00 0.00 71 968.5
20260504005623 55 212 7.0 5.0 0.00 0.00 0.00 70 968.6
20260504004946 55 215 6.0 6.0 0.00 0.00 0.00 69 968.6
20260504004305 56 194 6.0 0.0 0.00 0.00 0.00 68 968.7
20260504003628 56 212 4.0 7.0 0.00 0.00 0.00 67 968.5
20260504002947 57 150 7.0 5.0 0.00 0.00 0.00 65 968.4
20260504002310 57 191 6.0 8.0 0.00 0.00 0.00 64 968.4
20260504001629 57 233 6.0 6.0 0.00 0.00 0.00 64 968.4
20260504000952 57 153 9.0 3.0 0.00 0.00 0.00 64 968.4
20260504000311 57 176 8.0 6.0 0.00 0.00 0.00 64 968.3
20260503235633 57 160 8.0 8.0 0.00 0.00 0.00 64 968.3
20260503234953 57 181 6.0 8.0 0.00 0.00 0.00 63 968.2
20260503234315 58 181 9.0 3.0 0.00 0.00 0.00 63 968.2
20260503233634 58 222 2.0 3.0 0.00 0.00 0.00 63 968.2
20260503232957 58 179 9.0 6.0 0.00 0.00 0.00 62 968.2
20260503232316 58 174 7.0 8.0 0.00 0.00 0.00 62 968.3
20260503231639 58 170 9.0 16.0 0.00 0.00 0.00 61 968.1
20260503230958 58 229 9.0 14.0 0.00 0.00 0.00 62 968.5
20260503230321 57 129 9.0 15.0 0.00 0.00 0.00 62 968.6
20260503225640 57 179 7.0 6.0 0.00 0.00 0.00 62 968.6
20260503225003 57 194 7.0 8.0 0.00 0.00 0.00 62 968.7
20260503224322 57 186 10.0 6.0 0.00 0.00 0.00 63 968.9
20260503223644 57 212 12.0 8.0 0.00 0.00 0.00 63 969.3
20260503223004 57 248 8.0 6.0 0.00 0.00 0.00 63 969.1
20260503222326 56 235 13.0 10.0 0.00 0.00 0.00 63 969.4
20260503221645 56 166 8.0 13.0 0.00 0.00 0.00 64 969.3
20260503221008 56 191 13.0 9.0 0.00 0.00 0.00 64 969.4
20260503220327 56 166 12.0 17.0 0.00 0.00 0.00 64 969.6
20260503215650 56 162 9.0 19.0 0.00 0.00 0.00 64 969.6
20260503215009 56 207 10.0 7.0 0.00 0.00 0.00 65 969.7
20260503214332 56 205 12.0 8.0 0.00 0.00 0.00 66 969.9
20260503213651 56 197 13.0 15.0 0.00 0.00 0.00 66 969.9
20260503213014 56 162 13.0 10.0 0.00 0.00 0.00 66 970.3
20260503212333 56 179 8.0 8.0 0.00 0.00 0.00 69 970.4
20260503211656 55 238 10.0 10.0 0.00 0.00 0.00 69 970.4
20260503210337 55 263 12.0 6.0 0.00 0.00 0.00 71 970.7
20260503205657 54 229 12.0 6.0 0.00 0.00 0.00 73 970.8
20260503205019 53 203 9.0 15.0 0.00 0.00 0.00 74 971.0
20260503204338 53 180 11.0 11.0 0.00 0.00 0.00 75 971.2
20260503203701 53 177 12.0 7.0 0.00 0.00 0.00 75 971.2
20260503203020 53 233 9.0 12.0 0.00 0.00 0.00 76 971.4
20260503202343 53 222 8.0 9.0 0.00 0.00 0.00 76 971.5
20260503201702 52 181 14.0 11.0 0.00 0.00 0.00 75 971.4
20260503201025 52 207 5.0 11.0 0.00 0.00 0.00 75 971.6
20260503200344 53 240 10.0 9.0 0.00 0.00 0.00 74 971.5
20260503195707 53 197 9.0 14.0 0.00 0.00 0.00 72 971.5
20260503195026 54 207 11.0 9.0 0.00 0.00 0.00 70 971.5
20260503194348 54 201 10.0 15.0 0.00 0.00 0.00 69 971.4
20260503193708 55 193 7.0 14.0 0.00 0.00 0.00 69 971.4
20260503193030 55 226 5.0 10.0 0.00 0.00 0.00 68 971.3
20260503192349 56 214 8.0 5.0 0.00 0.00 0.00 66 971.3
20260503191712 57 184 6.0 3.0 0.00 0.00 0.00 65 971.3
20260503191031 58 188 10.0 13.0 0.00 0.00 0.00 63 971.1
20260503190354 58 239 12.0 16.0 0.00 0.00 0.00 62 971.3
20260503185713 59 204 10.0 15.0 0.00 0.00 0.00 60 971.2
20260503185036 59 221 13.0 8.0 0.00 0.00 0.00 60 971.2
20260503184355 59 219 6.0 18.0 0.00 0.00 0.00 60 971.0
20260503183718 59 207 9.0 14.0 0.00 0.00 0.00 60 971.1
20260503182400 59 193 9.0 9.0 0.00 0.00 0.00 59 971.2
20260503181719 60 212 5.0 11.0 0.00 0.00 0.00 59 971.4
20260503181041 59 224 9.0 14.0 0.00 0.00 0.00 59 971.4
20260503180401 59 249 7.0 9.0 0.00 0.00 0.00 58 971.6
20260503175723 59 232 7.0 13.0 0.00 0.00 0.00 61 971.6
20260503175043 59 149 8.0 8.0 0.00 0.00 0.00 61 971.8
20260503173724 58 253 9.0 11.0 0.00 0.00 0.00 61 971.8
20260503173047 58 172 10.0 9.0 0.00 0.00 0.00 61 971.9
20260503172406 57 239 7.0 9.0 0.00 0.00 0.00 63 972.1
20260503171729 57 221 13.0 7.0 0.00 0.00 0.00 61 972.2
20260503171048 57 285 9.0 3.0 0.00 0.00 0.00 63 972.4
20260503170411 57 269 7.0 7.0 0.00 0.00 0.00 63 972.2